Regional Weather Roundup
Issued by NWS Goodland, KS

Home | Current Version | Previous Version | Graphics & Text | Print | Product List | Glossary On
Versions: 1 2 3 4 5 6 7 8 9 10 11 12 13 14 15 16 17 18 19 20 21 22 23 24 25 26 27 28 29 30 31 32 33 34 35 36 37 38 39 40 41 42 43 44 45 46 47 48 49 50
351
ASUS43 KGLD 240459
RWRGLD

GOODLAND FORECAST AREA HOURLY WEATHER ROUNDUP
NATIONAL WEATHER SERVICE GOODLAND KS
1100 PM MDT MON MAY 23 2016

...OFFICIAL OBSERVATIONS...

CITY           SKY/WX    TMP DP  RH WIND       PRES   REMARKS
GOODLAND KS    CLEAR     56  50  80 E7        29.85R
HILL CITY KS   PTCLDY    65  62  90 E3        29.80S
IMPERIAL NEB   CLEAR     52  45  77 N7        29.88F
MCCOOK NEB     CLEAR     58  49  72 NW6       29.83R
AKRON CO       MOCLDY    53  44  71 NE10      29.90F
BURLINGTON CO  CLEAR     57  47  69 NE9       29.87R
LIMON CO       CLEAR     52  42  69 VRB6      29.93R
$$

...UNOFFICIAL OBSERVATIONS...

CITY           SKY/WX    TMP DP  RH WIND       PRES   REMARKS
COLBY KS       CLEAR     61  57  88 NE7       29.86R
LENORA KS        N/A     68  32  26 MISG        N/A
NORTON KS      PTCLDY    61  54  77 N5        29.81R
SHARON SPRINGS   N/A     61  55  81 NE9         N/A
TRIBUNE KS     MOCLDY    64  57  77 NE9       29.84
KIT CARSON CO    N/A     61  51  70 MISG        N/A
YUMA CO          N/A     50  45  84 NE9         N/A
$$




USA.gov is the U.S. government's official web portal to all federal, state and local government web resources and services.